Regional Weather Roundup
Issued by NWS

Home | Current Version | Previous Version | Graphics & Text | Print | Product List | Glossary On
Versions: 1 2 3 4 5 6 7 8 9 10 11 12 13 14 15 16 17 18 19 20 21 22 23 24 25 26 27 28 29 30 31 32 33 34 35 36 37 38 39 40 41 42 43 44 45 46 47 48 49 50
000
ASUS43 KOAX 181410
RWRNE

WEATHER ROUNDUP FOR NEBRASKA
NATIONAL WEATHER SERVICE OMAHA NE
900 AM CDT FRI APR 18 2014

NOTES: SATELLITE DATA IS BEING USED TO AUGMENT CLOUD COVER ABOVE
       12000 FEET.
       "FAIR" INDICATES FEW OR NO CLOUDS BELOW 12,000 FEET WITH NO
       SIGNIFICANT WEATHER AND/OR OBSTRUCTIONS TO VISIBILITY.

  * THESE STATIONS DO NOT REPORT WEATHER SUCH AS RAIN...SNOW OR FOG.

NEZ001>004-019>022-054>056-181500-
NEBRASKA PANHANDLE

CITY           SKY/WX    TMP DP  RH WIND       PRES   REMARKS
SCOTTSBLUFF    PTSUNNY   45  37  73 E10       29.93R
ALLIANCE       PTSUNNY   43  38  82 S9        29.92S
CHADRON        CLOUDY    48  40  73 CALM      29.86R
KIMBALL        MOSUNNY   47  36  67 SW8       29.95S
SIDNEY         MOSUNNY   47  37  68 SW13      29.97S
$$

NEZ057>060-069>072-079>082-181500-
SOUTHWEST NEBRASKA

CITY           SKY/WX    TMP DP  RH WIND       PRES   REMARKS
NORTH PLATTE   SUNNY     43  37  79 S15       30.06S
IMPERIAL       SUNNY     44  36  73 S18       30.04F
LEXINGTON      SUNNY     46  38  76 S14       30.12S
MCCOOK         SUNNY     45  39  79 S15       30.11R
OGALLALA       MOSUNNY   43  35  73 S13       30.02S
$$

NEZ005>010-023>029-035>040-094-181500-
NORTH CENTRAL NEBRASKA

CITY           SKY/WX    TMP DP  RH WIND       PRES   REMARKS
VALENTINE      SUNNY     48  37  65 S12G21    29.94F
AINSWORTH      MOSUNNY   47  38  69 S28       29.97F
BROKEN BOW     SUNNY     45  39  79 S18G28    30.08F
O`NEILL        SUNNY     49  37  64 S20G28    30.09S
ORD            SUNNY     46  38  73 S18       30.11F
THEDFORD       SUNNY     47  36  65 S20G26    30.01S
$$

NEZ041-046>049-061>064-073>077-083>087-181500-
SOUTH CENTRAL NEBRASKA

CITY           SKY/WX    TMP DP  RH WIND       PRES   REMARKS
GRAND ISLAND   SUNNY     47  37  68 S13       30.17F
AURORA         SUNNY     46  38  75 S14G20    30.19S
HASTINGS       SUNNY     45  36  70 S12       30.17F
HEBRON         SUNNY     45  36  71 S9        30.24S HAZE
HOLDREGE       SUNNY     45  37  74 S17G23    30.14S
KEARNEY *      SUNNY     46  37  71 S18       30.15S
YORK           SUNNY     45  36  70 S13       30.21S
$$

NEZ011>018-030>034-042>045-181500-
NORTHEAST NEBRASKA

CITY           SKY/WX    TMP DP  RH WIND       PRES   REMARKS
NORFOLK        SUNNY     46  33  60 S12       30.18F
ALBION         SUNNY     45  35  69 S10       30.16F
BLAIR          SUNNY     43  33  66 SE7       30.25F HAZE
COLUMBUS *     SUNNY     46  34  61 S12       30.21F
FREMONT        SUNNY     44  34  67 SE7       30.25S HAZE
TEKAMAH        SUNNY     43  31  62 SE14      30.26F
$$

NEZ050>053-065>068-078-088>093-181500-
SOUTHEAST NEBRASKA

CITY           SKY/WX    TMP DP  RH WIND       PRES   REMARKS
LINCOLN        SUNNY     46  35  65 S9        30.27S HAZE
OMAHA EPPLEY   SUNNY     42  31  64 SE7       30.28F HAZE
BEATRICE         N/A     44  34  69 S6        30.27S HAZE
FALLS CITY     SUNNY     42  36  79 SE5       30.30S HAZE
NEBRASKA CITY  SUNNY     42  35  77 S6        30.30R HAZE
PLATTSMOUTH    SUNNY     43  33  68 SE6       30.28S HAZE
$$

NEZ044-045-051>053-067-181500-
OMAHA AREA

CITY           SKY/WX    TMP DP  RH WIND       PRES   REMARKS
OMAHA EPPLEY   SUNNY     42  31  64 SE7       30.28F HAZE
BLAIR          SUNNY     43  33  66 SE7       30.25F HAZE
FREMONT        SUNNY     44  34  67 SE7       30.25S HAZE
MILLARD        SUNNY     42  33  70 SE5       30.28S HAZE
OFFUTT AFB     SUNNY     42  37  82 SE5       30.29S
PLATTSMOUTH    SUNNY     43  33  68 SE6       30.28S HAZE
WAHOO          FAIR      43  33  69 S10       30.25S HAZE
$$



USA.gov is the U.S. government's official web portal to all federal, state and local government web resources and services.